[[{"header":{"parameterUnit":"m.s-1","parameterCategory":1,"la1":30.2991,"la2":30.254,"lo1":-89.0895,"lo2":-89.0444,"dy":0.0017,"dx":0.0017,"nx":28,"ny":28,"refTime":"2023-03-30T21:00:00:Z","depth":0,"parameterNumber":2,"parameterNumberName":"U-component_of_WINDS"},"data":[0,0,0,0,0,0,0,0,0,0,0,0,0,0,0,0,0,0,0,0,0,0,0,0,0,0,0,0,0,0,0,0,0,0,0,0,0,0,0,0,0,0,0,0,0,0,0,0,0,0,0,0,0,0,0,0,0,0,-2.588,-2.588,0,-2.5855,-2.5855,-2.5855,-2.5829,-2.5829,-2.5829,-2.5828,-2.5802,-2.5802,-2.5801,0,0,0,0,0,0,0,0,0,0,0,0,0,-2.5904,-2.5904,-2.588,-2.588,-2.588,-2.5855,-2.5855,-2.5855,-2.5829,-2.5829,-2.5829,-2.5828,-2.5802,-2.5802,-2.5801,0,0,0,0,0,0,0,0,0,0,0,0,0,-2.5888,-2.5904,-2.588,-2.5864,-2.5862,-2.5856,-2.5855,-2.5855,-2.583,-2.5829,-2.5828,-2.5828,-2.5802,-2.5802,-2.5801,-2.5808,0,0,-2.5799,-2.5799,0,0,0,0,0,0,0,0,-2.5889,-2.5887,-2.5867,-2.5865,-2.5863,-2.5845,-2.5854,-2.5839,-2.583,-2.5842,-2.5828,-2.5828,-2.5817,-2.5815,-2.5811,-2.5807,-2.5806,-2.5799,-2.5799,-2.5799,-2.5799,0,0,0,0,0,0,0,-2.589,-2.5888,-2.587,-2.5866,-2.5864,-2.5858,-2.5855,-2.5851,-2.5832,-2.5841,-2.5839,-2.5836,-2.5816,-2.5812,-2.5811,-2.5805,-2.5799,-2.5799,-2.5799,-2.5798,-2.5804,-2.5805,0,0,0,0,0,0,-2.5894,-2.5889,-2.5871,-2.587,-2.5875,-2.5858,-2.5854,-2.5851,-2.5832,-2.5829,-2.5837,-2.5835,-2.5813,-2.5811,-2.581,-2.5815,-2.5799,-2.5798,-2.5798,-2.5804,-2.5804,-2.5805,0,0,0,0,0,0,-2.5894,-2.5892,-2.5872,-2.5879,-2.5876,-2.5858,-2.5854,-2.5851,-2.5847,-2.5829,-2.5826,-2.5837,-2.5813,-2.581,-2.5808,-2.5814,-2.5798,-2.5798,-2.5803,-2.5804,-2.5804,-2.5828,0,0,0,0,0,0,-2.5895,-2.5893,-2.5896,-2.5879,-2.5875,-2.5872,-2.5855,-2.5851,-2.5847,-2.5844,-2.5828,-2.5825,-2.5812,-2.5809,-2.5808,-2.5813,-2.5797,-2.5802,-2.5803,-2.5804,-2.5827,-2.5829,-2.5832,0,0,0,0,0,-2.5896,-2.5903,-2.5896,-2.5894,-2.5879,-2.5872,-2.587,-2.5855,-2.5847,-2.585,-2.5838,-2.5826,-2.5814,-2.5809,-2.5808,-2.5813,-2.5802,-2.5803,-2.5804,-2.5825,-2.5829,-2.5832,0,0,0,0,0,0,-2.592,-2.5901,-2.5892,-2.5894,-2.5885,-2.5868,-2.587,-2.586,-2.5852,-2.585,-2.5832,-2.5829,-2.5829,-2.5821,-2.5816,-2.5818,-2.5806,-2.5807,-2.5823,-2.5826,-2.5829,-2.583,-2.5797,0,0,0,0,0,-2.5926,-2.5923,-2.5906,-2.5909,-2.5905,-2.5889,-2.5885,-2.5875,-2.5864,-2.586,-2.5849,-2.5839,-2.5833,-2.5829,-2.5823,-2.5826,-2.5821,-2.5828,-2.5831,-2.5833,-2.5834,-2.5833,-2.5836,-2.5808,-2.5808,-2.5808,0,0,-2.5938,-2.5927,-2.5926,-2.5914,-2.5906,-2.5902,-2.5886,-2.5883,-2.588,-2.586,-2.5857,-2.5848,-2.5836,-2.5836,-2.5836,-2.5829,-2.584,-2.5834,-2.5836,-2.5836,-2.5835,-2.5837,-2.584,-2.5809,-2.5809,-2.5809,0,0,-2.5957,-2.5948,-2.595,-2.5942,-2.593,-2.5919,-2.5919,-2.5903,-2.5897,-2.5894,-2.5878,-2.5875,-2.5865,-2.5856,-2.5851,-2.5867,-2.5855,-2.5865,-2.5878,-2.5879,-2.5881,-2.5882,-2.5887,-2.5889,-2.5866,-2.5866,-2.5866,0,-2.5972,-2.5967,-2.5952,-2.595,-2.5945,-2.5927,-2.5928,-2.5921,-2.5907,-2.5903,-2.5897,-2.5884,-2.5874,-2.5872,-2.5876,-2.5872,-2.5871,-2.5866,-2.5882,-2.5883,-2.5885,-2.5889,-2.5891,-2.5867,-2.5867,-2.5867,-2.5867,0,-2.5987,-2.5983,-2.5986,-2.5973,-2.5968,-2.5968,-2.5952,-2.5949,-2.5939,-2.5928,-2.5925,-2.5913,-2.5904,-2.5902,-2.5893,-2.5898,-2.5895,-2.5885,-2.5873,-2.5889,-2.5892,-2.5894,-2.5869,-2.5869,-2.5868,-2.5868,0,0,-2.602,-2.5999,-2.6,-2.5993,-2.5978,-2.5975,-2.5974,-2.5965,-2.5962,-2.5953,-2.5951,-2.5943,-2.5934,-2.5927,-2.5916,-2.5917,-2.5928,-2.5907,-2.5906,-2.591,-2.5933,-2.5939,-2.5942,-2.5921,-2.5921,-2.5921,-2.5933,0,-2.6036,-2.6032,-2.6018,-2.6019,-2.6015,-2.5997,-2.5996,-2.5986,-2.5976,-2.5971,-2.596,-2.5955,-2.5944,-2.594,-2.5939,-2.5927,-2.5932,-2.5926,-2.5917,-2.5917,-2.592,-2.5943,-2.5951,-2.5963,-2.5935,-2.5935,-2.5935,0,-2.6054,-2.6046,-2.6046,-2.603,-2.6028,-2.6027,-2.6017,-2.6013,-2.6001,-2.5994,-2.5987,-2.5975,-2.5971,-2.5961,-2.5955,-2.5951,-2.5947,-2.594,-2.594,-2.5938,-2.5927,-2.5941,-2.5966,-2.5968,-2.5937,-2.5937,-2.5937,0,-2.6077,-2.6066,-2.6065,-2.606,-2.6042,-2.6042,-2.6034,-2.6022,-2.6017,-2.6009,-2.6005,-2.5996,-2.5991,-2.5984,-2.5969,-2.5963,-2.5965,-2.5953,-2.5958,-2.5958,-2.5959,-2.5959,-2.5983,-2.5957,-2.5957,-2.5957,-2.5957,0,-2.6095,-2.6096,-2.6075,-2.6074,-2.6073,-2.6057,-2.6057,-2.6048,-2.6037,-2.6034,-2.6018,-2.6015,-2.5996,-2.5991,-2.5979,-2.5976,-2.5974,-2.5967,-2.5964,-2.5968,-2.5969,-2.5964,-2.5963,-2.5958,-2.5958,-2.5958,-2.5958,0,-2.6121,-2.6107,-2.6104,-2.6087,-2.6083,-2.6083,-2.6069,-2.6067,-2.6056,-2.6052,-2.605,-2.6033,-2.6025,-2.601,-2.5998,-2.599,-2.5989,-2.5984,-2.5993,-2.5991,-2.5996,-2.5996,-2.6018,-2.6019,-2.5994,-2.5994,-2.5995,0,-2.6133,-2.6133,-2.6116,-2.6113,-2.6106,-2.6101,-2.6096,-2.608,-2.6075,-2.6061,-2.6061,-2.6052,-2.6044,-2.6033,-2.6019,-2.601,-2.6004,-2.6012,-2.6002,-2.6006,-2.6003,-2.6003,-2.6002,-2.6014,-2.6015,-2.6015,-2.6015,0,-2.6156,-2.6149,-2.6143,-2.6134,-2.6128,-2.612,-2.6112,-2.6109,-2.6091,-2.6087,-2.6079,-2.6073,-2.6061,-2.6052,-2.6041,-2.6032,-2.602,-2.6018,-2.6019,-2.6023,-2.6027,-2.6024,-2.5998,-2.6018,-2.6018,-2.6017,-2.6017,-2.6017,-2.6175,-2.6173,-2.6161,-2.6155,-2.6146,-2.6138,-2.6135,-2.6124,-2.6118,-2.6107,-2.6098,-2.6091,-2.6078,-2.6062,-2.6054,-2.6047,-2.6042,-2.6043,-2.6043,-2.6043,-2.6044,-2.6029,-2.6045,-2.6045,-2.6045,-2.6045,-2.6045,0,-2.6196,-2.6187,-2.6181,-2.617,-2.6164,-2.6154,-2.6143,-2.6139,-2.6133,-2.6123,-2.6116,-2.6106,-2.6097,-2.6083,-2.6073,-2.607,-2.6065,-2.6068,-2.6068,-2.6066,-2.605,-2.6051,-2.6073,-2.6073,-2.6073,-2.6073,-2.6073,-2.6073,-2.6207,-2.6204,-2.6195,-2.6188,-2.6179,-2.6172,-2.6167,-2.6159,-2.6151,-2.6141,-2.6134,-2.6125,-2.6112,-2.6101,-2.6092,-2.6088,-2.6085,-2.609,-2.6084,-2.607,-2.6067,-2.6065,-2.6065,-2.609,-2.609,-2.61,-2.61,-2.61]},{"header":{"parameterUnit":"m.s-1","parameterCategory":1,"la1":30.2991,"la2":30.254,"lo1":-89.0895,"lo2":-89.0444,"dy":0.0017,"dx":0.0017,"nx":28,"ny":28,"refTime":"2023-03-30T21:00:00:Z","depth":0,"parameterNumber":3,"parameterNumberName":"V-component_of_WINDS"},"data":[0,0,0,0,0,0,0,0,0,0,0,0,0,0,0,0,0,0,0,0,0,0,0,0,0,0,0,0,0,0,0,0,0,0,0,0,0,0,0,0,0,0,0,0,0,0,0,0,0,0,0,0,0,0,0,0,0,0,5.5704,5.5703,0,5.5694,5.5693,5.5693,5.563,5.5629,5.5627,5.5626,5.5615,5.5616,5.5617,0,0,0,0,0,0,0,0,0,0,0,0,0,5.5669,5.567,5.5704,5.5703,5.5703,5.5694,5.5693,5.5693,5.5631,5.5629,5.5627,5.5625,5.5615,5.5616,5.5617,0,0,0,0,0,0,0,0,0,0,0,0,0,5.5674,5.5671,5.5704,5.5671,5.5668,5.5694,5.5693,5.5693,5.5631,5.5629,5.5627,5.5624,5.5614,5.5616,5.5618,5.5674,0,0,5.5623,5.5624,0,0,0,0,0,0,0,0,5.5674,5.5676,5.5676,5.5673,5.567,5.5661,5.5677,5.5687,5.5632,5.5645,5.5626,5.5623,5.5632,5.5632,5.5635,5.5673,5.5673,5.5623,5.5624,5.5625,5.5625,0,0,0,0,0,0,0,5.5674,5.5676,5.5699,5.5676,5.5672,5.5657,5.5655,5.5679,5.5652,5.5644,5.5639,5.5639,5.563,5.5634,5.5635,5.5673,5.5623,5.5624,5.5626,5.5626,5.5759,5.5761,0,0,0,0,0,0,5.5678,5.5676,5.57,5.5699,5.5666,5.566,5.5657,5.5666,5.5651,5.5647,5.5641,5.5636,5.5632,5.5633,5.5634,5.57,5.5625,5.5626,5.5627,5.5756,5.5759,5.5762,0,0,0,0,0,0,5.5678,5.5681,5.57,5.5686,5.5688,5.5663,5.5673,5.5667,5.5671,5.5649,5.5644,5.565,5.563,5.5632,5.5665,5.5699,5.5627,5.5629,5.5753,5.5757,5.5761,5.5833,0,0,0,0,0,0,5.5677,5.5681,5.5702,5.5687,5.5689,5.5731,5.5675,5.5669,5.5674,5.5668,5.5656,5.5652,5.5629,5.5663,5.5667,5.57,5.563,5.575,5.5755,5.5759,5.5827,5.5839,5.5848,0,0,0,0,0,5.5676,5.5722,5.5703,5.5706,5.5714,5.5733,5.5734,5.5707,5.5677,5.5698,5.5684,5.5652,5.5695,5.5667,5.5671,5.5705,5.5748,5.5754,5.5759,5.5823,5.5836,5.5848,0,0,0,0,0,0,5.574,5.5719,5.5698,5.5741,5.5739,5.5723,5.5748,5.5722,5.5729,5.5722,5.5688,5.5686,5.5725,5.5718,5.5687,5.576,5.5716,5.5723,5.5763,5.5776,5.5786,5.5787,5.5631,0,0,0,0,0,5.5759,5.5776,5.5757,5.5797,5.5797,5.5773,5.578,5.576,5.5757,5.5756,5.5744,5.5743,5.5756,5.5765,5.5776,5.5826,5.5823,5.5852,5.5862,5.5871,5.5877,5.5905,5.5918,5.578,5.578,5.578,0,0,5.5798,5.5789,5.5802,5.5809,5.5806,5.5825,5.5773,5.5795,5.5809,5.5759,5.579,5.5782,5.5778,5.5821,5.5839,5.5816,5.5915,5.5878,5.5885,5.5887,5.5912,5.5925,5.5937,5.5784,5.5784,5.5783,0,0,5.588,5.5875,5.5908,5.5906,5.5902,5.5886,5.5895,5.5882,5.5875,5.5906,5.587,5.5886,5.5909,5.5909,5.5912,5.5997,5.5968,5.6001,5.6056,5.6084,5.6094,5.6104,5.6136,5.6147,5.6007,5.6008,5.6008,0,5.593,5.5958,5.5928,5.5954,5.5959,5.5915,5.595,5.5949,5.5949,5.5953,5.5928,5.5958,5.5952,5.5995,5.6016,5.6019,5.6028,5.6002,5.6095,5.6104,5.6113,5.6143,5.6155,5.6012,5.6011,5.6011,5.601,0,5.602,5.604,5.6067,5.6069,5.6077,5.6107,5.6083,5.6095,5.6074,5.6061,5.6094,5.6086,5.6096,5.6104,5.6083,5.6145,5.6131,5.6101,5.6056,5.6131,5.6158,5.6169,5.6018,5.6016,5.6015,5.6014,0,0,5.6141,5.6128,5.6139,5.614,5.6133,5.6148,5.6177,5.6187,5.6198,5.62,5.6224,5.6246,5.6219,5.6222,5.6201,5.6225,5.6295,5.6192,5.6192,5.6213,5.6364,5.6388,5.6401,5.6276,5.6278,5.628,5.6365,0,5.6221,5.6269,5.6244,5.6296,5.6315,5.6275,5.63,5.6299,5.6288,5.6303,5.6291,5.6308,5.627,5.6272,5.6294,5.6282,5.6325,5.6276,5.6299,5.63,5.6302,5.6415,5.644,5.652,5.6376,5.6377,5.6379,0,5.632,5.6328,5.6381,5.6374,5.6381,5.6403,5.6412,5.6426,5.6425,5.6416,5.6421,5.6395,5.6423,5.6379,5.6418,5.6385,5.6393,5.6389,5.6392,5.6393,5.6344,5.6421,5.6545,5.6558,5.6395,5.6394,5.6393,0,5.6405,5.6428,5.6464,5.6466,5.6457,5.6475,5.6472,5.6469,5.6477,5.6484,5.649,5.65,5.6506,5.6515,5.6493,5.6463,5.6536,5.6489,5.653,5.6531,5.6547,5.6547,5.6675,5.6551,5.6551,5.6551,5.6551,0,5.6497,5.6532,5.6502,5.6524,5.6563,5.6535,5.6574,5.6566,5.6564,5.6585,5.6551,5.6571,5.654,5.6557,5.654,5.6576,5.6579,5.6573,5.6568,5.6576,5.6577,5.6582,5.6576,5.6554,5.6553,5.6553,5.6552,0,5.6598,5.658,5.6616,5.6606,5.6604,5.6633,5.6624,5.6645,5.6632,5.6659,5.6663,5.6644,5.6663,5.6642,5.6659,5.6647,5.6697,5.6683,5.6697,5.6694,5.6736,5.6733,5.6872,5.689,5.6754,5.6755,5.6756,0,5.6659,5.6685,5.6678,5.669,5.669,5.6708,5.6717,5.6691,5.6702,5.6704,5.6725,5.6741,5.6753,5.6785,5.6772,5.6785,5.6772,5.6821,5.6774,5.6782,5.6775,5.6774,5.6777,5.683,5.6832,5.6833,5.6834,0,5.6769,5.6759,5.6773,5.6786,5.6798,5.6805,5.6811,5.6822,5.6795,5.6809,5.6829,5.6838,5.6856,5.6873,5.6883,5.688,5.6854,5.6849,5.6859,5.6868,5.6876,5.6874,5.6724,5.6846,5.6845,5.6844,5.6843,5.6843,5.6852,5.6875,5.6874,5.6892,5.6894,5.69,5.6919,5.691,5.6926,5.6939,5.6923,5.6947,5.6947,5.6958,5.6959,5.6978,5.6957,5.6972,5.6976,5.698,5.6987,5.6873,5.698,5.6979,5.6979,5.6978,5.6978,0,5.6962,5.696,5.6977,5.6986,5.7001,5.6975,5.698,5.6994,5.7016,5.7019,5.7031,5.7055,5.7071,5.7061,5.7076,5.7093,5.7081,5.7098,5.7097,5.7097,5.7004,5.6994,5.7107,5.7107,5.7107,5.7107,5.7107,5.7107,5.7021,5.7058,5.7048,5.7087,5.7084,5.7108,5.7114,5.712,5.7122,5.715,5.7164,5.7158,5.7155,5.717,5.7185,5.7181,5.7189,5.721,5.7202,5.7116,5.7103,5.7091,5.7082,5.7211,5.7212,5.7294,5.7295,5.7295]}]]